Alpena, MI

9:40 AM EDT on July 24, 2016 (GMT -0400)
Alpena County Regional

Weather History for KAPN - November, 2012

Change the Weather History Date:

Monday, November 5, 2012

  Actual Average Record
Temperature  
Mean Temperature 33 °F 39 °F  
Max Temperature 35 °F 48 °F 76 °F (1978)
Min Temperature 30 °F 31 °F 7 °F (1966)
Degree Days  
Heating Degree Days 32 26  
Month to date heating degree days 151 125  
Since 1 July heating degree days 991 1069  
Moisture  
Dew Point 22 °F    
Average Humidity 73    
Maximum Humidity 85    
Minimum Humidity 61    
Precipitation  
Precipitation T in 0.07 in 1.35 in (1990)
Month to date precipitation 0.02 0.37  
Year to date precipitation 24.22 24.68  
Snow  
Snow T in 0.20 in 7.10 in (1990)
Month to date snowfall T 0.6  
Since 1 July snowfall T 1.0  
Snow Depth 0.00 in    
Sea Level Pressure  
Sea Level Pressure 30.25 in    
Wind  
Wind Speed 4 mph (NNE)    
Max Wind Speed 13 mph    
Max Gust Speed 16 mph    
Visibility 10 miles    
Events Snow    
T = Trace of Precipitation, MM = Missing Value Source: NWS Daily Summary

Daily Weather History Graph

Daily Weather History Graph

Search for Another Location

Airport or City:

Trip Planner

Search our weather history database for the weather conditions in past years. The results will help you decide how hot, cold, wet, or windy it might be!

Date:

Astronomy

Nov. 05, 2012 Rise Set
Actual Time 7:19 AM EST 5:16 PM EST
Civil Twilight 6:48 AM EST 5:47 PM EST
Nautical Twilight 6:13 AM EST 6:22 PM EST
Astronomical Twilight 5:38 AM EST 6:56 PM EST
Moon 10:53 PM EST (11/5) 12:38 PM EST (11/5)
Length of Visible Light 10h 59m
Length of Day
9h 57m
Waning Gibbous, 63% of the Moon is Illuminated
Nov 5
Waning Gibbous
Nov 6
Last Quarter
Nov 13
New
Nov 20
First Quarter
Nov 28
Full

Hourly Weather History & Observations

Time (EST) Temp. Windchill Dew Point Humidity Pressure Visibility Wind Dir Wind Speed Gust Speed Precip Events Conditions
12:13 AM 32.0 °F 24.8 °F 26.6 °F 80% 30.21 in 10.0 mi NNE 8.1 mph - N/A   Overcast
12:43 AM 32.0 °F 24.2 °F 26.6 °F 80% 30.21 in 10.0 mi NNE 9.2 mph - N/A   Overcast
12:54 AM 32.0 °F 23.0 °F 25.0 °F 75% 30.24 in 10.0 mi NNE 11.5 mph - N/A   Overcast
1:54 AM 30.9 °F 21.7 °F 23.0 °F 72% 30.25 in 10.0 mi NNE 11.5 mph - N/A   Overcast
2:54 AM 30.0 °F 21.1 °F 23.0 °F 75% 30.26 in 10.0 mi NE 10.4 mph - N/A   Overcast
3:54 AM 30.0 °F 23.2 °F 23.0 °F 75% 30.26 in 10.0 mi NNE 6.9 mph - N/A   Overcast
4:54 AM 30.0 °F 24.1 °F 21.9 °F 72% 30.27 in 10.0 mi NE 5.8 mph - N/A   Overcast
5:54 AM 30.0 °F 26.5 °F 23.0 °F 75% 30.27 in 10.0 mi NE 3.5 mph - N/A   Overcast
6:54 AM 30.0 °F 23.2 °F 21.0 °F 69% 30.27 in 10.0 mi NNE 6.9 mph - N/A   Overcast
7:15 AM 30.2 °F 24.3 °F 19.4 °F 64% 30.24 in 10.0 mi NNE 5.8 mph - N/A   Overcast
7:24 AM 30.2 °F 24.3 °F 19.4 °F 64% 30.24 in 10.0 mi North 5.8 mph - N/A   Overcast
7:54 AM 30.0 °F 21.7 °F 21.0 °F 69% 30.29 in 10.0 mi NNE 9.2 mph - N/A   Overcast
8:01 AM 30.2 °F 22.6 °F 21.2 °F 69% 30.26 in 10.0 mi North 8.1 mph - N/A   Overcast
8:54 AM 30.0 °F 25.2 °F 19.9 °F 66% 30.30 in 10.0 mi NE 4.6 mph - N/A   Overcast
9:54 AM 30.9 °F - 21.0 °F 67% 30.30 in 10.0 mi Calm Calm - N/A   Overcast
10:54 AM 32.0 °F - 21.0 °F 64% 30.30 in 10.0 mi Calm Calm - N/A   Overcast
11:24 AM 30.2 °F - 21.2 °F 69% 30.26 in 10.0 mi Calm Calm - N/A   Overcast
11:54 AM 32.0 °F - 21.9 °F 66% 30.29 in 10.0 mi Calm Calm - N/A   Overcast
12:09 PM 33.8 °F 29.6 °F 23.0 °F 65% 30.26 in 10.0 mi NW 4.6 mph - N/A   Overcast
12:54 PM 33.1 °F - 21.9 °F 64% 30.27 in 9.0 mi Calm Calm - 0.00 in Snow Light Snow
1:54 PM 34.0 °F 31.0 °F 21.9 °F 61% 30.25 in 9.0 mi North 3.5 mph - 0.00 in Snow Light Snow
2:54 PM 34.0 °F 28.8 °F 21.9 °F 61% 30.25 in 10.0 mi North 5.8 mph - 0.00 in   Overcast
3:54 PM 34.0 °F 31.0 °F 21.9 °F 61% 30.25 in 10.0 mi North 3.5 mph - N/A   Overcast
4:54 PM 33.1 °F 27.7 °F 21.9 °F 64% 30.24 in 10.0 mi NNE 5.8 mph - N/A   Overcast
5:54 PM 32.0 °F - 21.9 °F 66% 30.24 in 10.0 mi Calm Calm - N/A   Overcast
6:54 PM 32.0 °F - 21.9 °F 66% 30.25 in 10.0 mi Calm Calm - N/A   Overcast
7:54 PM 32.0 °F - 21.9 °F 66% 30.24 in 10.0 mi Calm Calm - N/A   Overcast
8:54 PM 32.0 °F - 23.0 °F 69% 30.23 in 10.0 mi Calm Calm - N/A   Overcast
9:54 PM 30.9 °F - 23.0 °F 72% 30.23 in 10.0 mi Calm Calm - N/A   Overcast
10:54 PM 30.9 °F - 24.1 °F 76% 30.21 in 10.0 mi Calm Calm - N/A   Overcast
11:54 PM 30.9 °F - 24.1 °F 76% 30.19 in 10.0 mi Calm Calm - N/A   Overcast